Temp
1 -0 0 -0 -0 -1 -1 -2 -3 -2 -1 -1 -1 -1 -1 -2 -2 -3 -3 -3 -3 -3 -3 -4 -4 -3 -3
0 -0 -1 -1 -2 -2 -3 -3 -4 -3 -2 -2 -2 -3 -2 -2 -3 -3 -3 -3 -3 -3 -3 -4 -5 -5 -4
-2 -2 -3 -3 -3 -3 -4 -4 -4 -4 -4 -5 -5 -5 -4 -5 -5 -5 -4 -4 -4 -4 -5 -5 -5 -5 -5
-3 -3 -4 -4 -4 -4 -5 -5 -5 -5 -5 -5 -5 -5 -4 -5 -5 -5 -6 -6 -6 -6 -6 -6 -6 -6 -6
-3 -4 -4 -4 -4 -5 -5 -5 -5 -5 -5 -5 -5 -5 -5 -5 -5 -5 -6 -6 -6 -6 -6 -6 -6 -6 -6
-4 -5 -5 -5 -5 -5 -5 -6 -6 -5 -6 -6 -5 -5 -5 -5 -5 -6 -6 -6 -6 -5 -6 -7 -7 -7 -7
-5 -5 -6 -5 -6 -6 -6 -6 -6 -5 -6 -6 -5 -6 -6 -6 -6 -6 -6 -6 -5 -5 -6 -7 -7 -7 -7
-6 -5 -5 -6 -6 -6 -6 -6 -6 -6 -6 -6 -6 -6 -6 -6 -6 -6 -6 -6 -6 -6 -7 -7 -7 -7 -7
-6 -6 -5 -5 -6 -7 -6 -7 -7 -7 -6 -7 -7 -7 -7 -6 -6 -7 -7 -7 -7 -6 -7 -7 -8 -7 -7
-6 -5 -5 -6 -7 -7 -7 -8 -8 -8 -8 -8 -8 -8 -8 -7 -7 -7 -7 -7 -7 -7 -6 -7 -8 -8 -8
-6 -6 -6 -7 -7 -7 -7 -8 -9 -8 -8 -9 -9 -8 -8 -8 -8 -8 -8 -7 -7 -6 -6 -7 -8 -8 -8
-7 -7 -8 -8 -8 -7 -7 -7 -7 -8 -8 -8 -9 -8 -8 -8 -8 -8 -7 -7 -7 -7 -7 -7 -7 -7 -7
-8 -8 -9 -8 -8 -8 -7 -7 -7 -7 -8 -9 -9 -9 -9 -8 -9 -8 -8 -7 -7 -8 -8 -8 -8 -7 -7
-9 -10 -10 -10 -9 -9 -10 -8 -8 -8 -8 -8 -8 -9 -9 -9 -9 -8 -7 -8 -8 -8 -8 -8 -8 -7 -7
-10 -10 -10 -10 -11 -10 -10 -10 -10 -10 -10 -8 -8 -9 -9 -9 -8 -8 -8 -8 -8 -9 -9 -8 -7 -7 -7
-10 -11 -11 -11 -11 -10 -10 -10 -11 -10 -10 -10 -9 -9 -8 -8 -8 -9 -8 -9 -9 -9 -9 -9 -8 -6 -6
-11 -11 -11 -11 -10 -10 -10 -10 -11 -11 -10 -10 -10 -9 -9 -9 -9 -9 -9 -9 -9 -9 -9 -9 -9 -7 -6
Height
1524 1523 1522 1519 1516 1514 1512 1510 1508 1506 1504 1500 1498 1493 1492 1489 1486 1485 1482 1480 1477 1472 1472 1468 1468 1466 1463
1520 1519 1518 1515 1513 1509 1507 1506 1504 1501 1499 1496 1494 1490 1487 1486 1483 1478 1477 1475 1471 1468 1465 1463 1461 1459 1456
1515 1515 1514 1510 1508 1507 1505 1504 1500 1498 1497 1493 1491 1487 1485 1482 1481 1478 1473 1469 1465 1463 1460 1457 1454 1452 1450
1510 1510 1510 1508 1507 1505 1502 1500 1497 1493 1494 1492 1487 1484 1481 1478 1476 1474 1470 1466 1463 1460 1456 1452 1449 1446 1443
1505 1505 1506 1505 1503 1502 1500 1498 1495 1491 1489 1489 1484 1480 1476 1474 1472 1467 1464 1460 1457 1454 1450 1447 1443 1439 1436
1501 1503 1503 1502 1499 1496 1495 1492 1491 1489 1485 1483 1482 1477 1473 1470 1470 1464 1457 1455 1451 1448 1444 1441 1436 1432 1429
1498 1495 1496 1495 1496 1492 1492 1490 1485 1481 1483 1477 1476 1470 1467 1465 1463 1460 1454 1449 1445 1442 1438 1434 1430 1426 1422
1494 1491 1491 1490 1489 1487 1482 1482 1482 1478 1475 1471 1471 1469 1463 1458 1455 1452 1448 1444 1441 1437 1433 1427 1423 1419 1414
1488 1486 1486 1487 1485 1482 1478 1478 1474 1474 1472 1468 1462 1458 1456 1452 1448 1445 1444 1440 1436 1431 1425 1420 1416 1411 1406
1485 1484 1483 1480 1483 1480 1478 1474 1469 1465 1466 1466 1459 1454 1446 1444 1443 1440 1437 1434 1430 1425 1418 1413 1410 1405 1399
1476 1477 1478 1474 1475 1475 1473 1472 1467 1459 1457 1459 1454 1449 1447 1439 1436 1435 1431 1427 1422 1416 1411 1407 1403 1400 1393
1475 1476 1475 1472 1470 1470 1467 1462 1459 1456 1453 1453 1449 1446 1442 1436 1431 1428 1425 1421 1416 1410 1405 1400 1396 1391 1388
1470 1467 1469 1466 1464 1464 1462 1456 1452 1451 1451 1447 1445 1442 1437 1432 1426 1422 1418 1413 1411 1406 1400 1395 1389 1384 1377
1466 1465 1467 1464 1460 1458 1453 1450 1446 1445 1444 1442 1440 1435 1431 1428 1423 1417 1415 1411 1405 1402 1396 1389 1384 1379 1373
1463 1461 1462 1461 1456 1452 1448 1446 1443 1440 1438 1436 1433 1431 1428 1424 1418 1415 1410 1406 1402 1397 1391 1382 1377 1372 1366
1459 1456 1456 1453 1451 1447 1445 1442 1439 1436 1434 1431 1428 1424 1421 1418 1417 1410 1407 1403 1399 1393 1387 1379 1369 1364 1360
1454 1452 1450 1449 1446 1443 1440 1438 1436 1433 1430 1428 1425 1422 1417 1412 1410 1411 1405 1400 1394 1387 1382 1376 1367 1358 1353
Wind_Speed
16 19 22 20 20 20 20 19 17 19 18 20 21 21 23 24 24 26 26 26 27 28 27 23 23 24 26
18 19 21 21 22 19 19 18 18 19 20 21 21 22 22 23 24 24 25 25 26 27 26 26 27 28 27
18 17 19 20 20 21 19 19 18 18 18 20 21 20 21 22 23 24 25 24 22 22 25 27 27 27 27
13 17 18 19 17 18 20 20 18 18 19 17 18 21 23 21 22 24 24 25 24 24 26 26 25 27 28
16 18 18 15 17 19 21 21 23 17 19 22 18 24 24 25 23 23 26 24 25 26 23 24 26 28 29
15 15 17 17 18 18 21 22 24 21 24 26 29 28 25 21 23 24 23 25 24 26 25 26 28 28 29
15 13 14 15 18 20 21 24 26 26 26 31 26 26 28 27 25 23 25 23 27 28 28 27 28 29 31
14 16 16 17 19 20 22 25 27 25 23 27 26 31 27 26 24 27 21 23 28 33 31 29 30 30 30
12 12 14 16 17 20 21 21 25 25 24 27 24 28 29 29 25 21 24 30 31 36 34 32 29 29 30
15 15 15 14 15 17 17 20 22 24 16 22 26 25 25 26 22 29 29 33 36 39 35 30 27 27 31
16 16 15 14 17 18 19 21 22 22 25 23 26 23 22 32 32 30 28 32 37 38 33 29 27 25 31
16 16 16 18 19 20 19 19 19 22 22 20 24 22 25 29 31 32 33 32 36 35 33 34 32 31 30
18 18 19 19 19 19 19 19 19 20 20 18 21 25 25 29 31 33 33 36 35 35 33 34 36 35 37
14 15 16 17 19 19 20 22 21 22 23 22 20 19 24 27 29 33 33 34 36 31 34 36 36 36 36
15 14 16 17 18 19 21 20 22 25 26 24 22 20 22 26 28 26 27 33 32 36 35 38 38 38 38
14 15 18 19 20 19 19 23 24 23 25 24 23 26 27 27 22 24 29 32 36 33 33 35 42 39 36
17 17 17 18 18 19 20 21 23 23 23 24 25 25 28 31 31 25 29 33 33 37 35 35 39 40 33
Wind_Direction
295 297 305 310 313 314 315 316 313 307 311 309 309 308 308 310 310 313 315 313 313 314 313 313 309 304 303
302 305 304 311 314 316 314 312 306 312 311 309 310 310 309 309 308 309 307 307 307 307 306 306 307 307 307
302 307 306 315 313 319 325 322 315 311 308 309 313 314 316 319 317 315 316 316 310 308 307 306 305 306 304
304 301 305 311 308 304 305 310 310 307 308 313 310 315 319 316 310 314 315 314 311 309 304 305 302 303 304
299 302 301 306 302 306 305 308 310 315 297 310 304 310 308 305 307 306 304 311 310 311 309 305 304 304 304
288 285 287 292 297 301 304 308 305 314 314 308 313 311 315 315 306 303 308 311 314 316 309 304 305 306 304
282 287 292 297 298 300 302 301 300 306 301 302 314 307 305 303 301 301 307 310 322 324 315 306 304 304 303
274 287 286 288 290 292 295 296 299 303 310 300 303 298 307 308 300 309 307 313 321 325 316 309 305 304 302
307 305 303 301 299 297 300 300 297 298 297 294 301 304 308 307 311 308 305 311 320 323 321 312 305 305 299
297 300 301 301 304 303 301 293 297 304 306 300 310 314 312 312 306 309 311 314 319 321 321 317 309 304 305
295 300 300 296 286 284 286 289 291 290 304 306 310 313 303 307 308 310 312 316 322 322 323 320 316 309 307
293 291 286 279 280 290 294 301 306 306 319 318 308 310 305 303 305 310 314 321 327 325 323 323 319 320 318
277 273 270 280 289 296 300 306 310 310 312 312 300 298 300 303 308 316 318 321 325 325 321 320 321 324 324
281 284 288 294 300 306 308 316 316 312 311 310 317 309 307 306 308 308 315 315 323 325 322 317 319 323 325
278 285 289 294 302 307 314 320 313 310 309 315 323 324 310 315 312 314 319 321 324 324 321 318 321 326 327
281 291 296 305 311 318 316 311 311 314 318 322 324 321 319 317 321 316 315 313 321 323 320 319 322 326 330
291 297 306 307 308 309 310 311 311 310 316 319 317 317 315 309 320 311 308 316 320 327 325 322 319 325 331